Location: Riverton
(43.0250°N, 108.3790°W)
Time: 22:28:38
(UTC-07:00)

FO-29 - Visible Passes

Search period start: 23 January 2018 00:00
Search period end: 02 February 2018 00:00
Orbit: 799 x 1322 km, 98.5° (Epoch: 22 January)

Date Brightness Start Highest point End Pass type
(mag) Time Alt. Az. Time Alt. Az. Time Alt. Az.
23 Jan 12.1 05:41:58 10° E 05:44:49 13° ENE 05:47:33 10° NNE visible
24 Jan 11.3 06:28:45 10° SE 06:34:20 31° ENE 06:39:24 10° N visible
25 Jan 12.1 05:37:40 10° ENE 05:39:53 12° ENE 05:42:01 10° NE visible
26 Jan 11.4 06:24:03 10° ESE 06:29:21 29° ENE 06:34:12 10° N visible
27 Jan 12.2 05:33:37 10° ENE 05:34:56 11° NE 05:36:14 10° NE visible
28 Jan 11.5 06:19:21 10° ESE 06:24:22 26° ENE 06:28:58 10° N visible
30 Jan 11.6 06:14:40 10° ESE 06:19:22 24° ENE 06:23:45 10° NNE visible
01 Feb 11.7 06:09:59 10° ESE 06:14:23 22° ENE 06:18:30 10° NNE visible
